Time,TemperatureF,DewpointF,PressureIn,WindDirection,WindDirectionDegrees,WindSpeedMPH,WindSpeedGustMPH,Humidity,HourlyPrecipIn,Conditions,Clouds,dailyrainin,SolarRadiationWatts/m^2,SoftwareType,DateUTC
2013-02-26 00:01:00,41.0,30.0,-100.00,East,89,4.0,10.0,64,0.00,,,0.00,0.000000,,2013-02-26 08:01:00,
2013-02-26 00:11:00,39.0,25.0,-100.00,ESE,113,3.0,6.0,56,0.00,,,0.00,0.000000,,2013-02-26 08:11:00,
2013-02-26 00:32:00,39.0,25.0,-100.00,ESE,113,3.0,6.0,56,0.00,,,0.00,0.000000,,2013-02-26 08:32:00,
2013-02-26 00:42:00,39.0,25.0,-100.00,ESE,113,3.0,6.0,56,0.00,,,0.00,0.000000,,2013-02-26 08:42:00,
2013-02-26 00:52:00,39.0,25.0,-100.00,ESE,113,3.0,6.0,56,0.00,,,0.00,0.000000,,2013-02-26 08:52:00,
2013-02-26 01:01:00,39.0,25.0,-100.00,ESE,113,3.0,6.0,56,0.00,,,0.00,0.000000,,2013-02-26 09:01:00,
2013-02-26 01:11:00,39.0,23.0,-100.00,East,91,6.0,7.0,53,0.00,,,0.00,0.000000,,2013-02-26 09:11:00,
2013-02-26 01:43:00,39.0,23.0,-100.00,East,91,6.0,7.0,53,0.00,,,0.00,0.000000,,2013-02-26 09:43:00,
2013-02-26 01:52:00,39.0,23.0,-100.00,East,91,6.0,7.0,53,0.00,,,0.00,0.000000,,2013-02-26 09:52:00,
2013-02-26 02:01:00,39.0,23.0,-100.00,East,91,6.0,7.0,53,0.00,,,0.00,0.000000,,2013-02-26 10:01:00,
2013-02-26 02:11:00,39.0,23.0,-100.00,East,89,6.0,8.0,52,0.00,,,-99.99,0.000000,,2013-02-26 10:11:00,
2013-02-26 02:32:00,39.0,23.0,-100.00,East,89,6.0,8.0,52,0.00,,,-99.99,0.000000,,2013-02-26 10:32:00,
2013-02-26 02:42:00,39.0,23.0,-100.00,East,89,6.0,8.0,52,0.00,,,-99.99,0.000000,,2013-02-26 10:42:00,
2013-02-26 02:52:00,39.0,23.0,-100.00,East,89,6.0,8.0,52,0.00,,,-99.99,0.000000,,2013-02-26 10:52:00,
2013-02-26 03:01:00,39.0,23.0,-100.00,East,89,6.0,8.0,52,0.00,,,-99.99,0.000000,,2013-02-26 11:01:00,
2013-02-26 03:11:00,37.0,23.0,-100.00,East,90,5.0,8.0,56,0.00,,,0.00,0.000000,,2013-02-26 11:11:00,
2013-02-26 03:32:00,37.0,23.0,-100.00,East,90,5.0,8.0,56,0.00,,,0.00,0.000000,,2013-02-26 11:32:00,
2013-02-26 03:42:00,37.0,23.0,-100.00,East,90,5.0,8.0,56,0.00,,,0.00,0.000000,,2013-02-26 11:42:00,
2013-02-26 03:52:00,37.0,23.0,-100.00,East,90,5.0,8.0,56,0.00,,,0.00,0.000000,,2013-02-26 11:52:00,
2013-02-26 04:01:00,37.0,23.0,-100.00,East,90,5.0,8.0,56,0.00,,,0.00,0.000000,,2013-02-26 12:01:00,
2013-02-26 04:11:00,38.0,22.0,-100.00,East,88,5.0,8.0,52,0.00,,,0.00,0.000000,,2013-02-26 12:11:00,
2013-02-26 04:32:00,38.0,22.0,-100.00,East,88,5.0,8.0,52,0.00,,,0.00,0.000000,,2013-02-26 12:32:00,
2013-02-26 04:42:00,38.0,22.0,-100.00,East,88,5.0,8.0,52,0.00,,,0.00,0.000000,,2013-02-26 12:42:00,
2013-02-26 04:53:00,38.0,22.0,-100.00,East,88,5.0,8.0,52,0.00,,,0.00,0.000000,,2013-02-26 12:53:00,
2013-02-26 05:01:00,38.0,22.0,-100.00,East,88,5.0,8.0,52,0.00,,,0.00,0.000000,,2013-02-26 13:01:00,
2013-02-26 05:11:00,37.0,24.0,-100.00,SE,140,2.0,7.0,59,0.00,,,0.00,0.000000,,2013-02-26 13:11:00,
2013-02-26 05:42:00,37.0,24.0,-100.00,SE,140,2.0,7.0,59,0.00,,,0.00,0.000000,,2013-02-26 13:42:00,
2013-02-26 05:52:00,37.0,24.0,-100.00,SE,140,2.0,7.0,59,0.00,,,0.00,0.000000,,2013-02-26 13:52:00,
2013-02-26 06:01:00,37.0,24.0,-100.00,SE,140,2.0,7.0,59,0.00,,,0.00,0.000000,,2013-02-26 14:01:00,
2013-02-26 06:11:00,37.0,23.0,-100.00,East,90,2.0,5.0,56,0.00,,,0.00,0.000000,,2013-02-26 14:11:00,
2013-02-26 06:32:00,37.0,23.0,-100.00,East,90,2.0,5.0,56,0.00,,,0.00,0.000000,,2013-02-26 14:32:00,
2013-02-26 06:42:00,37.0,23.0,-100.00,East,90,2.0,5.0,56,0.00,,,0.00,0.000000,,2013-02-26 14:42:00,
2013-02-26 06:52:00,37.0,23.0,-100.00,East,90,2.0,5.0,56,0.00,,,0.00,0.000000,,2013-02-26 14:52:00,
2013-02-26 07:01:00,37.0,23.0,-100.00,East,90,2.0,5.0,56,0.00,,,0.00,0.000000,,2013-02-26 15:01:00,
2013-02-26 07:11:00,37.0,22.0,-100.00,ESE,104,3.0,5.0,55,0.00,,,0.00,6.000000,,2013-02-26 15:11:00,
2013-02-26 07:32:00,37.0,22.0,-100.00,ESE,104,3.0,5.0,55,0.00,,,0.00,6.000000,,2013-02-26 15:32:00,
2013-02-26 07:42:00,37.0,22.0,-100.00,ESE,104,3.0,5.0,55,0.00,,,0.00,6.000000,,2013-02-26 15:42:00,
2013-02-26 07:52:00,37.0,22.0,-100.00,ESE,104,3.0,5.0,55,0.00,,,0.00,6.000000,,2013-02-26 15:52:00,
2013-02-26 08:01:00,37.0,22.0,-100.00,ESE,104,3.0,5.0,55,0.00,,,0.00,6.000000,,2013-02-26 16:01:00,
2013-02-26 08:11:00,46.0,26.0,-100.00,North,5,1.0,4.0,46,0.00,,,0.00,144.000000,,2013-02-26 16:11:00,
2013-02-26 08:32:00,46.0,26.0,-100.00,North,5,1.0,4.0,46,0.00,,,0.00,144.000000,,2013-02-26 16:32:00,
2013-02-26 08:42:00,46.0,26.0,-100.00,North,5,1.0,4.0,46,0.00,,,0.00,144.000000,,2013-02-26 16:42:00,
2013-02-26 08:52:00,46.0,26.0,-100.00,North,5,1.0,4.0,46,0.00,,,0.00,144.000000,,2013-02-26 16:52:00,
2013-02-26 09:01:00,46.0,26.0,-100.00,North,5,1.0,4.0,46,0.00,,,0.00,144.000000,,2013-02-26 17:01:00,
2013-02-26 09:11:00,55.0,25.0,-100.00,WNW,289,3.0,5.0,31,0.00,,,0.00,359.000000,,2013-02-26 17:11:00,
2013-02-26 09:32:00,55.0,25.0,-100.00,WNW,289,3.0,5.0,31,0.00,,,0.00,359.000000,,2013-02-26 17:32:00,
2013-02-26 09:42:00,55.0,25.0,-100.00,WNW,289,3.0,5.0,31,0.00,,,0.00,359.000000,,2013-02-26 17:42:00,
2013-02-26 09:52:00,55.0,25.0,-100.00,WNW,289,3.0,5.0,31,0.00,,,0.00,359.000000,,2013-02-26 17:52:00,
2013-02-26 10:01:00,55.0,25.0,-100.00,WNW,289,3.0,5.0,31,0.00,,,0.00,359.000000,,2013-02-26 18:01:00,
2013-02-26 10:11:00,57.0,21.0,-100.00,WNW,283,5.0,9.0,24,0.00,,,0.00,530.000000,,2013-02-26 18:11:00,
2013-02-26 10:32:00,57.0,21.0,-100.00,WNW,283,5.0,9.0,24,0.00,,,0.00,530.000000,,2013-02-26 18:32:00,
2013-02-26 10:42:00,57.0,21.0,-100.00,WNW,283,5.0,9.0,24,0.00,,,0.00,530.000000,,2013-02-26 18:42:00,
2013-02-26 10:52:00,57.0,21.0,-100.00,WNW,283,5.0,9.0,24,0.00,,,0.00,530.000000,,2013-02-26 18:52:00,
2013-02-26 11:01:00,57.0,21.0,-100.00,WNW,283,5.0,9.0,24,0.00,,,0.00,530.000000,,2013-02-26 19:01:00,
2013-02-26 11:11:00,62.0,17.0,-100.00,West,263,9.0,18.0,17,0.00,,,0.00,657.000000,,2013-02-26 19:11:00,
2013-02-26 11:42:00,62.0,17.0,-100.00,West,263,9.0,18.0,17,0.00,,,0.00,657.000000,,2013-02-26 19:42:00,
2013-02-26 11:52:00,62.0,17.0,-100.00,West,263,9.0,18.0,17,0.00,,,0.00,657.000000,,2013-02-26 19:52:00,
2013-02-26 12:01:00,62.0,17.0,-100.00,West,263,9.0,18.0,17,0.00,,,0.00,657.000000,,2013-02-26 20:01:00,
2013-02-26 14:11:00,64.0,22.0,-100.00,West,281,12.0,19.0,20,-99.99,,,0.00,688.000000,,2013-02-26 22:11:00,
2013-02-26 14:42:00,64.0,22.0,-100.00,West,281,12.0,19.0,20,-99.99,,,0.00,688.000000,,2013-02-26 22:42:00,
2013-02-26 14:52:00,64.0,22.0,-100.00,West,281,12.0,19.0,20,-99.99,,,0.00,688.000000,,2013-02-26 22:52:00,
2013-02-26 15:01:00,64.0,22.0,-100.00,West,281,12.0,19.0,20,-99.99,,,0.00,688.000000,,2013-02-26 23:01:00,
2013-02-26 15:11:00,64.0,22.0,-100.00,WNW,284,12.0,18.0,20,0.00,,,0.00,569.000000,,2013-02-26 23:11:00,
2013-02-26 15:32:00,64.0,22.0,-100.00,WNW,284,12.0,18.0,20,0.00,,,0.00,569.000000,,2013-02-26 23:32:00,
2013-02-26 15:42:00,64.0,22.0,-100.00,WNW,284,12.0,18.0,20,0.00,,,0.00,569.000000,,2013-02-26 23:42:00,
2013-02-26 15:52:00,64.0,22.0,-100.00,WNW,284,12.0,18.0,20,0.00,,,0.00,569.000000,,2013-02-26 23:52:00,
2013-02-26 16:01:00,64.0,22.0,-100.00,WNW,284,12.0,18.0,20,0.00,,,0.00,569.000000,,2013-02-27 00:01:00,
2013-02-26 16:11:00,63.0,29.0,-100.00,NW,308,11.0,16.0,27,0.00,,,0.00,419.000000,,2013-02-27 00:11:00,
2013-02-26 16:42:00,63.0,29.0,-100.00,NW,308,11.0,16.0,27,0.00,,,0.00,419.000000,,2013-02-27 00:42:00,
2013-02-26 16:52:00,63.0,29.0,-100.00,NW,308,11.0,16.0,27,0.00,,,0.00,419.000000,,2013-02-27 00:52:00,
2013-02-26 17:01:00,63.0,29.0,-100.00,NW,308,11.0,16.0,27,0.00,,,0.00,419.000000,,2013-02-27 01:01:00,
2013-02-26 17:11:00,61.0,28.0,-100.00,WNW,299,8.0,14.0,28,0.00,,,0.00,232.000000,,2013-02-27 01:11:00,
2013-02-26 17:32:00,61.0,28.0,-100.00,WNW,299,8.0,14.0,28,0.00,,,0.00,232.000000,,2013-02-27 01:32:00,
2013-02-26 17:42:00,61.0,28.0,-100.00,WNW,299,8.0,14.0,28,0.00,,,0.00,232.000000,,2013-02-27 01:42:00,
2013-02-26 17:52:00,61.0,28.0,-100.00,WNW,299,8.0,14.0,28,0.00,,,0.00,232.000000,,2013-02-27 01:52:00,
2013-02-26 18:01:00,61.0,28.0,-100.00,WNW,299,8.0,14.0,28,0.00,,,0.00,232.000000,,2013-02-27 02:01:00,
2013-02-26 18:11:00,54.0,28.0,-100.00,WNW,301,7.0,11.0,37,0.00,,,0.00,48.000000,,2013-02-27 02:11:00,
2013-02-26 18:42:00,54.0,28.0,-100.00,WNW,301,7.0,11.0,37,0.00,,,0.00,48.000000,,2013-02-27 02:42:00,
2013-02-26 18:52:00,54.0,28.0,-100.00,WNW,301,7.0,11.0,37,0.00,,,0.00,48.000000,,2013-02-27 02:52:00,
2013-02-26 19:01:00,54.0,28.0,-100.00,WNW,301,7.0,11.0,37,0.00,,,0.00,48.000000,,2013-02-27 03:01:00,
2013-02-26 19:11:00,48.0,29.0,-100.00,NNE,14,2.0,7.0,48,0.00,,,0.00,0.000000,,2013-02-27 03:11:00,
2013-02-26 19:32:00,48.0,29.0,-100.00,NNE,14,2.0,7.0,48,0.00,,,0.00,0.000000,,2013-02-27 03:32:00,
2013-02-26 19:42:00,48.0,29.0,-100.00,NNE,14,2.0,7.0,48,0.00,,,0.00,0.000000,,2013-02-27 03:42:00,
2013-02-26 19:52:00,48.0,29.0,-100.00,NNE,14,2.0,7.0,48,0.00,,,0.00,0.000000,,2013-02-27 03:52:00,
2013-02-26 20:01:00,48.0,29.0,-100.00,NNE,14,2.0,7.0,48,0.00,,,0.00,0.000000,,2013-02-27 04:01:00,
2013-02-26 20:11:00,44.0,27.0,-100.00,SSW,198,0.0,7.0,51,0.00,,,0.00,0.000000,,2013-02-27 04:11:00,
2013-02-26 20:32:00,44.0,27.0,-100.00,SSW,198,0.0,7.0,51,0.00,,,0.00,0.000000,,2013-02-27 04:32:00,
2013-02-26 20:42:00,44.0,27.0,-100.00,SSW,198,0.0,7.0,51,0.00,,,0.00,0.000000,,2013-02-27 04:42:00,
2013-02-26 20:52:00,44.0,27.0,-100.00,SSW,198,0.0,7.0,51,0.00,,,0.00,0.000000,,2013-02-27 04:52:00,
2013-02-26 21:01:00,44.0,27.0,-100.00,SSW,198,0.0,7.0,51,0.00,,,0.00,0.000000,,2013-02-27 05:01:00,
2013-02-26 21:11:00,44.0,27.0,-100.00,East,85,2.0,5.0,50,0.00,,,0.00,0.000000,,2013-02-27 05:11:00,
2013-02-26 21:32:00,44.0,27.0,-100.00,East,85,2.0,5.0,50,0.00,,,0.00,0.000000,,2013-02-27 05:32:00,
2013-02-26 21:42:00,44.0,27.0,-100.00,East,85,2.0,5.0,50,0.00,,,0.00,0.000000,,2013-02-27 05:42:00,
2013-02-26 21:52:00,44.0,27.0,-100.00,East,85,2.0,5.0,50,0.00,,,0.00,0.000000,,2013-02-27 05:52:00,
2013-02-26 22:02:00,44.0,27.0,-100.00,East,85,2.0,5.0,50,0.00,,,0.00,0.000000,,2013-02-27 06:02:00,
2013-02-26 22:11:00,43.0,25.0,-100.00,East,81,3.0,5.0,49,0.00,,,0.00,0.000000,,2013-02-27 06:11:00,
2013-02-26 22:33:00,43.0,25.0,-100.00,East,81,3.0,5.0,49,0.00,,,0.00,0.000000,,2013-02-27 06:33:00,
2013-02-26 22:42:00,43.0,25.0,-100.00,East,81,3.0,5.0,49,0.00,,,0.00,0.000000,,2013-02-27 06:42:00,
2013-02-26 22:52:00,43.0,25.0,-100.00,East,81,3.0,5.0,49,0.00,,,0.00,0.000000,,2013-02-27 06:52:00,
2013-02-26 23:01:00,43.0,25.0,-100.00,East,81,3.0,5.0,49,0.00,,,0.00,0.000000,,2013-02-27 07:01:00,
2013-02-26 23:11:00,43.0,23.0,-100.00,ESE,110,2.0,7.0,44,0.00,,,0.00,0.000000,,2013-02-27 07:11:00,
2013-02-26 23:32:00,43.0,23.0,-100.00,ESE,110,2.0,7.0,44,0.00,,,0.00,0.000000,,2013-02-27 07:32:00,
2013-02-26 23:42:00,43.0,23.0,-100.00,ESE,110,2.0,7.0,44,0.00,,,0.00,0.000000,,2013-02-27 07:42:00,
2013-02-26 23:52:00,43.0,23.0,-100.00,ESE,110,2.0,7.0,44,0.00,,,0.00,0.000000,,2013-02-27 07:52:00,